Fairmont, MN

1:24 PM CDT on August 21, 2017 (GMT -0500)
Fairmont Municipal

Weather History for KFRM - June, 2013

Change the Weather History Date:

Wednesday, June 12, 2013

  Actual Average Record
Temperature  
Mean Temperature 66 °F -  
Max Temperature 73 °F 81 °F 96 °F (1956)
Min Temperature 60 °F 59 °F 44 °F (1985)
Cooling Degree Days 2    
Growing Degree Days 16 (Base 50)    
Moisture  
Dew Point 62 °F    
Average Humidity 81    
Maximum Humidity 88    
Minimum Humidity 68    
Precipitation  
Precipitation 0.29 in - - ()
Sea Level Pressure  
Sea Level Pressure 29.82 in    
Wind  
Wind Speed 13 mph (NNE)    
Max Wind Speed 25 mph    
Max Gust Speed 34 mph    
Visibility 10 miles    
Events Thunderstorm    
Averages and records for this station are not official NWS values.
T = Trace of Precipitation, MM = Missing Value Source: NWS Daily Summary

Daily Weather History Graph

Daily Weather History Graph

Search for Another Location

Airport or City:

Trip Planner

Search our weather history database for the weather conditions in past years. The results will help you decide how hot, cold, wet, or windy it might be!

Date:

Astronomy

Jun. 12, 2013 Rise Set
Actual Time 5:35 AM CDT 8:59 PM CDT
Civil Twilight 4:59 AM CDT 9:35 PM CDT
Nautical Twilight 4:13 AM CDT 10:22 PM CDT
Astronomical Twilight 3:14 AM CDT 11:21 PM CDT
Moon 9:21 AM CDT (6/12) 11:29 PM CDT (6/12)
Length of Visible Light 16h 35m
Length of Day
15h 24m
Waxing Crescent, 14% of the Moon is Illuminated
Jun 12
Waxing Crescent
Jun 16
First Quarter
Jun 23
Full
Jun 29
Last Quarter
Jul 8
New

Hourly Weather History & Observations

Time (CDT) Temp. Dew Point Humidity Pressure Visibility Wind Dir Wind Speed Gust Speed Precip Events Conditions
12:15 AM 71.6 °F 64.4 °F 78% 29.86 in 10.0 mi NE 9.2 mph - N/A   Clear
12:35 AM 71.6 °F 64.4 °F 78% 29.88 in 10.0 mi NNE 9.2 mph - N/A   Mostly Cloudy
12:55 AM 71.6 °F 64.4 °F 78% 29.86 in 10.0 mi NNE 13.8 mph - N/A   Mostly Cloudy
1:15 AM 71.6 °F 64.4 °F 78% 29.86 in 10.0 mi NNE 13.8 mph - N/A   Mostly Cloudy
1:35 AM 69.8 °F 64.4 °F 83% 29.83 in 10.0 mi ENE 13.8 mph - N/A   Mostly Cloudy
1:55 AM 69.8 °F 64.4 °F 83% 29.83 in 10.0 mi ENE 13.8 mph - N/A Thunderstorm Mostly Cloudy
2:15 AM 69.8 °F 64.4 °F 83% 29.77 in 10.0 mi ESE 21.9 mph 26.5 mph N/A Thunderstorm Thunderstorm
2:35 AM 69.8 °F 64.4 °F 83% 29.77 in 10.0 mi East 17.3 mph - N/A   Clear
2:55 AM 71.6 °F 64.4 °F 78% 29.77 in 10.0 mi ESE 16.1 mph 21.9 mph N/A   Clear
3:15 AM 71.6 °F 64.4 °F 78% 29.81 in 10.0 mi SSE 5.8 mph - N/A Thunderstorm Scattered Clouds
3:35 AM 69.8 °F 64.4 °F 83% 29.86 in 9.0 mi South 9.2 mph - 0.01 in Thunderstorm Thunderstorm
3:55 AM 69.8 °F 64.4 °F 83% 29.86 in 8.0 mi NNE 5.8 mph - 0.09 in Thunderstorm Mostly Cloudy
4:15 AM 69.8 °F 64.4 °F 83% 29.82 in 10.0 mi ENE 10.4 mph - 0.03 in Thunderstorm Overcast
4:35 AM 68.0 °F 64.4 °F 88% 29.72 in 7.0 mi East 21.9 mph 26.5 mph 0.04 in   Overcast
4:55 AM 68.0 °F 64.4 °F 88% 29.70 in 10.0 mi East 16.1 mph 26.5 mph 0.05 in   Overcast
5:15 AM 69.8 °F 64.4 °F 83% 29.79 in 10.0 mi SE 11.5 mph - N/A   Overcast
5:35 AM 69.8 °F 64.4 °F 83% 29.75 in 10.0 mi East 10.4 mph - N/A   Overcast
5:55 AM 69.8 °F 64.4 °F 83% 29.76 in 9.0 mi ENE 8.1 mph - N/A   Overcast
6:15 AM 69.8 °F 66.2 °F 88% 29.77 in 10.0 mi NE 5.8 mph - N/A   Overcast
6:35 AM 69.8 °F 64.4 °F 83% 29.79 in 7.0 mi NNE 4.6 mph - N/A   Overcast
6:55 AM 69.8 °F 64.4 °F 83% 29.79 in 10.0 mi ESE 6.9 mph - N/A   Overcast
7:15 AM 69.8 °F 66.2 °F 88% 29.79 in 10.0 mi ESE 6.9 mph - N/A   Overcast
7:35 AM 71.6 °F 66.2 °F 83% 29.78 in 10.0 mi ESE 9.2 mph - N/A   Scattered Clouds
7:55 AM 71.6 °F 66.2 °F 83% 29.78 in 10.0 mi ESE 10.4 mph - N/A   Clear
8:15 AM 71.6 °F 66.2 °F 83% 29.78 in 10.0 mi SSE 11.5 mph - N/A   Clear
8:35 AM 71.6 °F 66.2 °F 83% 29.77 in 10.0 mi SSE 10.4 mph - N/A   Clear
8:55 AM 73.4 °F 66.2 °F 78% 29.77 in 10.0 mi SSE 9.2 mph - N/A   Scattered Clouds
9:15 AM 73.4 °F 66.2 °F 78% 29.79 in 10.0 mi Calm Calm - N/A   Overcast
9:35 AM 73.4 °F 66.2 °F 78% 29.79 in 10.0 mi North 3.5 mph - N/A   Overcast
9:55 AM 66.2 °F 60.8 °F 83% 29.80 in 9.0 mi North 19.6 mph 26.5 mph N/A   Overcast
10:15 AM 64.4 °F 60.8 °F 88% 29.80 in 8.0 mi North 18.4 mph 24.2 mph N/A   Overcast
10:35 AM 64.4 °F 60.8 °F 88% 29.78 in 9.0 mi NNE 16.1 mph 19.6 mph N/A   Overcast
10:55 AM 66.2 °F 60.8 °F 83% 29.79 in 8.0 mi NNE 15.0 mph - N/A   Overcast
11:15 AM 66.2 °F 62.6 °F 88% 29.78 in 8.0 mi NNE 12.7 mph - N/A   Overcast
11:35 AM 66.2 °F 62.6 °F 88% 29.78 in 8.0 mi NNE 15.0 mph - N/A   Overcast
11:55 AM 68.0 °F 62.6 °F 83% 29.78 in 8.0 mi NNE 12.7 mph - N/A   Overcast
12:15 PM 68.0 °F 64.4 °F 88% 29.78 in 9.0 mi NE 13.8 mph - N/A   Overcast
12:35 PM 69.8 °F 64.4 °F 83% 29.78 in 10.0 mi NE 13.8 mph - N/A   Overcast
12:55 PM 69.8 °F 64.4 °F 83% 29.78 in 10.0 mi NE 12.7 mph - N/A   Overcast
1:15 PM 71.6 °F 64.4 °F 78% 29.78 in 10.0 mi NE 11.5 mph - N/A   Overcast
1:35 PM 71.6 °F 66.2 °F 83% 29.77 in 10.0 mi NE 10.4 mph - N/A   Overcast
1:55 PM 71.6 °F 66.2 °F 83% 29.78 in 10.0 mi NE 6.9 mph - N/A   Overcast
2:15 PM 71.6 °F 66.2 °F 83% 29.78 in 10.0 mi NNE 6.9 mph - N/A   Overcast
2:35 PM 73.4 °F 66.2 °F 78% 29.78 in 10.0 mi NNW 4.6 mph - N/A   Overcast
2:55 PM 73.4 °F 66.2 °F 78% 29.77 in 10.0 mi NNW 3.5 mph - N/A   Overcast
3:15 PM 73.4 °F 66.2 °F 78% 29.77 in 10.0 mi WNW 4.6 mph - N/A   Overcast
3:35 PM 73.4 °F 66.2 °F 78% 29.76 in 10.0 mi WNW 5.8 mph - N/A   Overcast
3:55 PM 71.6 °F 66.2 °F 83% 29.77 in 9.0 mi West 12.7 mph - 0.03 in   Overcast
4:15 PM 66.2 °F 62.6 °F 88% 29.78 in 9.0 mi NW 21.9 mph 25.3 mph 0.02 in   Overcast
4:35 PM 64.4 °F 60.8 °F 88% 29.78 in 9.0 mi NW 24.2 mph 27.6 mph 0.02 in   Overcast
4:55 PM 64.4 °F 60.8 °F 88% 29.79 in 7.0 mi NW 20.7 mph 27.6 mph 0.03 in   Overcast
5:15 PM 62.6 °F 57.2 °F 82% 29.79 in 10.0 mi NNW 25.3 mph 34.5 mph N/A   Overcast
5:35 PM 62.6 °F 59.0 °F 88% 29.81 in 10.0 mi NNW 24.2 mph 32.2 mph N/A   Overcast
5:55 PM 62.6 °F 57.2 °F 82% 29.82 in 10.0 mi NNW 24.2 mph 31.1 mph N/A   Overcast
6:15 PM 62.6 °F 57.2 °F 82% 29.83 in 10.0 mi NNW 25.3 mph 33.4 mph 0.01 in   Overcast
6:35 PM 62.6 °F 57.2 °F 82% 29.83 in 10.0 mi NNW 25.3 mph 32.2 mph 0.01 in   Overcast
6:55 PM 60.8 °F 57.2 °F 88% 29.85 in 8.0 mi NNW 23.0 mph 29.9 mph 0.01 in   Mostly Cloudy
7:15 PM 60.8 °F 57.2 °F 88% 29.86 in 6.0 mi NNW 20.7 mph 26.5 mph 0.05 in   Overcast
7:35 PM 60.8 °F 55.4 °F 82% 29.86 in 10.0 mi NNW 21.9 mph 28.8 mph 0.08 in   Overcast
7:55 PM 62.6 °F 57.2 °F 82% 29.87 in 10.0 mi NNW 17.3 mph - 0.08 in   Mostly Cloudy
8:15 PM 62.6 °F 57.2 °F 82% 29.87 in 10.0 mi NNW 19.6 mph 24.2 mph N/A   Mostly Cloudy
8:35 PM 62.6 °F 55.4 °F 77% 29.87 in 10.0 mi NNW 18.4 mph 23.0 mph N/A   Overcast
8:55 PM 62.6 °F 53.6 °F 72% 29.88 in 10.0 mi NNW 17.3 mph 24.2 mph N/A   Mostly Cloudy
9:15 PM 62.6 °F 51.8 °F 68% 29.89 in 10.0 mi NNW 13.8 mph 26.5 mph N/A   Overcast
9:35 PM 62.6 °F 51.8 °F 68% 29.90 in 10.0 mi NW 16.1 mph 20.7 mph N/A   Mostly Cloudy
9:55 PM 62.6 °F 53.6 °F 72% 29.92 in 10.0 mi NW 16.1 mph 23.0 mph N/A   Mostly Cloudy
10:15 PM 64.4 °F 53.6 °F 68% 29.93 in 10.0 mi NW 19.6 mph 26.5 mph N/A   Overcast
10:35 PM 64.4 °F 55.4 °F 73% 29.94 in 10.0 mi NW 18.4 mph 25.3 mph N/A   Overcast
10:55 PM 64.4 °F 55.4 °F 73% 29.95 in 10.0 mi NW 20.7 mph 25.3 mph N/A   Overcast
11:15 PM 64.4 °F 55.4 °F 73% 29.96 in 10.0 mi NW 21.9 mph 28.8 mph N/A   Overcast
11:35 PM 64.4 °F 53.6 °F 68% 29.95 in 10.0 mi NNW 17.3 mph 24.2 mph N/A   Mostly Cloudy
11:55 PM 64.4 °F 53.6 °F 68% 29.97 in 10.0 mi NW 12.7 mph 20.7 mph N/A   Scattered Clouds